Location: D�derode
(51.8092°N, 10.1065°E)
Time: 02:10:03
(UTC+00:00)

Cosmos 1812 - Pass Details

Date: 19 April 2021
Orbit: 516 x 519 km, 82.5° (Epoch: 10 May)

Event Time Altitude Azimuth Distance (km) Brightness Sun altitude
Exits shadow 22:55:56 24° 54° (NE) 1,111 4.6 -26.5°
Drops below altitude 10° 22:58:01 10° 29° (NNE) 1,765 6.1 -26.5°
Sets 23:00:19 0° 19° (NNE) 2,659 7.3 -26.6°
